Time,TemperatureF,DewpointF,PressureIn,WindDirection,WindDirectionDegrees,WindSpeedMPH,WindSpeedGustMPH,Humidity,HourlyPrecipIn,Conditions,Clouds,dailyrainin,SoftwareType,DateUTC
2013-03-08 00:00:00,29.7,13.4,30.44,SE,129,0.0,0.0,50,0.00,,,0.04,WeatherCatV1.02B3,2013-03-08 05:00:00,
2013-03-08 00:05:00,29.6,11.9,30.44,SE,126,0.0,5.0,47,0.00,,,0.00,WeatherCatV1.02B3,2013-03-08 05:05:00,
2013-03-08 00:10:00,29.5,13.6,30.44,SE,126,0.0,1.0,51,0.00,,,0.00,WeatherCatV1.02B3,2013-03-08 05:10:00,
2013-03-08 00:15:00,29.3,13.9,30.44,West,277,1.0,1.0,52,0.00,,,0.00,WeatherCatV1.02B3,2013-03-08 05:15:00,
2013-03-08 00:20:00,29.3,12.1,30.44,SE,127,0.0,0.0,48,0.00,,,0.00,WeatherCatV1.02B3,2013-03-08 05:20:00,
2013-03-08 00:25:00,29.2,14.2,30.44,SE,126,0.0,0.0,53,0.00,,,0.00,WeatherCatV1.02B3,2013-03-08 05:25:00,
2013-03-08 00:30:00,28.6,14.1,30.43,SSE,164,0.0,4.0,54,0.00,,,0.00,WeatherCatV1.02B3,2013-03-08 05:30:00,
2013-03-08 00:32:00,28.5,10.9,30.43,East,82,2.0,6.0,47,0.00,,,0.00,WeatherCatV1.02B3,2013-03-08 05:32:00,
2013-03-08 00:37:00,29.0,9.8,30.43,ENE,62,0.0,0.0,44,0.00,,,0.00,WeatherCatV1.02B3,2013-03-08 05:37:00,
2013-03-08 00:42:00,29.4,9.7,30.43,ENE,59,1.0,2.0,43,0.00,,,0.00,WeatherCatV1.02B3,2013-03-08 05:42:00,
2013-03-08 00:47:00,29.5,12.7,30.43,West,273,1.0,5.0,49,0.00,,,0.00,WeatherCatV1.02B3,2013-03-08 05:47:00,
2013-03-08 00:52:00,29.6,11.9,30.43,SSW,208,0.0,0.0,47,0.00,,,0.00,WeatherCatV1.02B3,2013-03-08 05:52:00,
2013-03-08 00:57:00,29.3,11.1,30.42,West,261,0.0,0.0,46,0.00,,,0.00,WeatherCatV1.02B3,2013-03-08 05:57:00,
2013-03-08 01:02:00,29.0,13.2,30.42,North,0,0.0,0.0,51,0.00,,,0.00,WeatherCatV1.02B3,2013-03-08 06:02:00,
2013-03-08 01:07:00,28.6,12.8,30.42,North,0,0.0,1.0,51,0.00,,,0.00,WeatherCatV1.02B3,2013-03-08 06:07:00,
2013-03-08 01:12:00,28.5,11.3,30.42,North,355,0.0,1.0,48,0.00,,,0.00,WeatherCatV1.02B3,2013-03-08 06:12:00,
2013-03-08 01:17:00,28.6,11.0,30.42,North,0,0.0,3.0,47,0.00,,,0.00,WeatherCatV1.02B3,2013-03-08 06:17:00,
2013-03-08 01:22:00,28.9,7.1,30.42,East,88,3.0,4.0,39,0.00,,,0.00,WeatherCatV1.02B3,2013-03-08 06:22:00,
2013-03-08 01:27:00,29.8,6.7,30.43,East,92,0.0,2.0,37,0.00,,,0.00,WeatherCatV1.02B3,2013-03-08 06:27:00,
2013-03-08 01:32:00,30.1,9.8,30.43,East,92,0.0,0.0,42,0.00,,,0.00,WeatherCatV1.02B3,2013-03-08 06:32:00,
2013-03-08 01:37:00,29.8,10.6,30.43,East,92,0.0,1.0,44,0.00,,,0.00,WeatherCatV1.02B3,2013-03-08 06:37:00,
2013-03-08 01:42:00,29.6,8.8,30.43,West,260,0.0,4.0,41,0.00,,,0.00,WeatherCatV1.02B3,2013-03-08 06:42:00,
2013-03-08 01:47:00,29.4,12.2,30.43,West,259,1.0,1.0,48,0.00,,,0.00,WeatherCatV1.02B3,2013-03-08 06:47:00,
2013-03-08 01:52:00,28.9,11.7,30.43,West,260,0.0,0.0,48,0.00,,,0.00,WeatherCatV1.02B3,2013-03-08 06:52:00,
2013-03-08 01:57:00,28.5,12.3,30.44,West,260,0.0,0.0,50,0.00,,,0.00,WeatherCatV1.02B3,2013-03-08 06:57:00,
2013-03-08 02:02:00,28.3,9.2,30.43,West,260,0.0,0.0,44,0.00,,,0.00,WeatherCatV1.02B3,2013-03-08 07:02:00,
2013-03-08 02:07:00,28.5,10.4,30.43,West,260,0.0,1.0,46,0.00,,,0.00,WeatherCatV1.02B3,2013-03-08 07:07:00,
2013-03-08 02:12:00,28.4,11.2,30.43,West,260,0.0,0.0,48,0.00,,,0.00,WeatherCatV1.02B3,2013-03-08 07:12:00,
2013-03-08 02:17:00,28.4,12.2,30.43,West,260,0.0,1.0,50,0.00,,,0.00,WeatherCatV1.02B3,2013-03-08 07:17:00,
2013-03-08 02:22:00,28.3,11.2,30.43,West,260,0.0,0.0,48,0.00,,,0.00,WeatherCatV1.02B3,2013-03-08 07:22:00,
2013-03-08 02:27:00,28.4,7.7,30.42,NE,44,3.0,4.0,41,0.00,,,0.00,WeatherCatV1.02B3,2013-03-08 07:27:00,
2013-03-08 02:32:00,28.8,9.2,30.42,ENE,73,0.0,1.0,43,0.00,,,0.00,WeatherCatV1.02B3,2013-03-08 07:32:00,
2013-03-08 02:37:00,28.8,6.4,30.42,East,99,1.0,3.0,38,0.00,,,0.00,WeatherCatV1.02B3,2013-03-08 07:37:00,
2013-03-08 02:42:00,29.5,8.2,30.42,East,86,3.0,4.0,40,0.00,,,0.00,WeatherCatV1.02B3,2013-03-08 07:42:00,
2013-03-08 02:47:00,29.7,7.2,30.42,East,86,0.0,3.0,38,0.00,,,0.00,WeatherCatV1.02B3,2013-03-08 07:47:00,
2013-03-08 02:52:00,29.6,9.4,30.42,East,86,0.0,0.0,42,0.00,,,0.00,WeatherCatV1.02B3,2013-03-08 07:52:00,
2013-03-08 02:57:00,29.3,9.1,30.42,East,86,0.0,0.0,42,0.00,,,0.00,WeatherCatV1.02B3,2013-03-08 07:57:00,
2013-03-08 03:02:00,29.0,9.3,30.41,East,86,0.0,0.0,43,0.00,,,0.00,WeatherCatV1.02B3,2013-03-08 08:02:00,
2013-03-08 03:07:00,28.8,8.6,30.41,East,86,0.0,0.0,42,0.00,,,0.00,WeatherCatV1.02B3,2013-03-08 08:07:00,
2013-03-08 03:12:00,29.0,4.8,30.42,East,86,0.0,1.0,35,0.00,,,0.00,WeatherCatV1.02B3,2013-03-08 08:12:00,
2013-03-08 03:17:00,29.5,7.6,30.42,NNE,32,1.0,3.0,39,0.00,,,0.00,WeatherCatV1.02B3,2013-03-08 08:17:00,
2013-03-08 03:22:00,29.6,7.7,30.41,NNE,32,0.0,2.0,39,0.00,,,0.00,WeatherCatV1.02B3,2013-03-08 08:22:00,
2013-03-08 03:27:00,29.3,4.5,30.42,NE,36,2.0,6.0,34,0.00,,,0.00,WeatherCatV1.02B3,2013-03-08 08:27:00,
2013-03-08 03:32:00,29.7,3.5,30.42,NNE,28,1.0,2.0,32,0.00,,,0.00,WeatherCatV1.02B3,2013-03-08 08:32:00,
2013-03-08 03:37:00,30.1,3.8,30.42,ENE,65,3.0,5.0,32,0.00,,,0.00,WeatherCatV1.02B3,2013-03-08 08:37:00,
2013-03-08 03:42:00,30.7,2.3,30.42,NNE,15,3.0,3.0,29,0.00,,,0.00,WeatherCatV1.02B3,2013-03-08 08:42:00,
2013-03-08 03:47:00,31.5,2.9,30.42,NNE,31,1.0,2.0,29,0.00,,,0.00,WeatherCatV1.02B3,2013-03-08 08:47:00,
2013-03-08 03:52:00,31.8,5.3,30.42,WNW,291,1.0,5.0,32,0.00,,,0.00,WeatherCatV1.02B3,2013-03-08 08:52:00,
2013-03-08 03:57:00,31.6,7.1,30.42,NNW,338,1.0,1.0,35,0.00,,,0.00,WeatherCatV1.02B3,2013-03-08 08:57:00,
2013-03-08 04:02:00,31.4,2.9,30.42,East,86,5.0,6.0,29,0.00,,,0.00,WeatherCatV1.02B3,2013-03-08 09:02:00,
2013-03-08 04:07:00,31.4,5.7,30.42,ESE,122,0.0,1.0,33,0.00,,,0.00,WeatherCatV1.02B3,2013-03-08 09:07:00,
2013-03-08 04:12:00,31.1,6.0,30.42,SE,124,0.0,0.0,34,0.00,,,0.00,WeatherCatV1.02B3,2013-03-08 09:12:00,
2013-03-08 04:17:00,30.5,7.4,30.42,ENE,67,0.0,0.0,37,0.00,,,0.00,WeatherCatV1.02B3,2013-03-08 09:17:00,
2013-03-08 04:22:00,29.9,8.0,30.43,ENE,67,0.0,0.0,39,0.00,,,0.00,WeatherCatV1.02B3,2013-03-08 09:22:00,
2013-03-08 04:27:00,29.2,8.5,30.42,ENE,67,0.0,2.0,41,0.00,,,0.00,WeatherCatV1.02B3,2013-03-08 09:27:00,
2013-03-08 04:32:00,28.7,10.1,30.42,East,92,1.0,2.0,45,0.00,,,0.00,WeatherCatV1.02B3,2013-03-08 09:32:00,
2013-03-08 04:37:00,28.3,10.7,30.42,East,91,0.0,0.0,47,0.00,,,0.00,WeatherCatV1.02B3,2013-03-08 09:37:00,
2013-03-08 04:42:00,27.7,11.5,30.42,East,91,0.0,1.0,50,0.00,,,0.00,WeatherCatV1.02B3,2013-03-08 09:42:00,
2013-03-08 04:47:00,27.2,11.5,30.43,East,101,2.0,2.0,51,0.00,,,0.00,WeatherCatV1.02B3,2013-03-08 09:47:00,
2013-03-08 04:52:00,26.8,12.4,30.43,NE,51,0.0,6.0,54,0.00,,,0.00,WeatherCatV1.02B3,2013-03-08 09:52:00,
2013-03-08 04:57:00,26.4,13.3,30.42,NE,48,0.0,1.0,57,0.00,,,0.00,WeatherCatV1.02B3,2013-03-08 09:57:00,
2013-03-08 05:02:00,26.0,14.0,30.42,NE,49,0.0,1.0,60,0.00,,,0.00,WeatherCatV1.02B3,2013-03-08 10:02:00,
2013-03-08 05:07:00,25.5,13.6,30.42,NE,49,0.0,2.0,60,0.00,,,0.00,WeatherCatV1.02B3,2013-03-08 10:07:00,
2013-03-08 05:12:00,25.3,13.0,30.42,East,80,0.0,4.0,59,0.00,,,0.00,WeatherCatV1.02B3,2013-03-08 10:12:00,
2013-03-08 05:17:00,25.3,13.0,30.42,NE,34,0.0,3.0,59,0.00,,,0.00,WeatherCatV1.02B3,2013-03-08 10:17:00,
2013-03-08 05:22:00,25.4,12.3,30.42,East,83,1.0,2.0,57,0.00,,,0.00,WeatherCatV1.02B3,2013-03-08 10:22:00,
2013-03-08 05:27:00,25.5,10.8,30.42,North,9,4.0,4.0,53,0.00,,,0.00,WeatherCatV1.02B3,2013-03-08 10:27:00,
2013-03-08 05:32:00,25.8,10.2,30.43,East,84,2.0,3.0,51,0.00,,,0.00,WeatherCatV1.02B3,2013-03-08 10:32:00,
2013-03-08 05:37:00,26.2,10.6,30.43,NE,37,2.0,3.0,51,0.00,,,0.00,WeatherCatV1.02B3,2013-03-08 10:37:00,
2013-03-08 05:42:00,26.3,11.1,30.43,ENE,64,0.0,7.0,52,0.00,,,0.00,WeatherCatV1.02B3,2013-03-08 10:42:00,
2013-03-08 05:47:00,26.5,10.0,30.43,ENE,68,0.0,1.0,49,0.00,,,0.00,WeatherCatV1.02B3,2013-03-08 10:47:00,
2013-03-08 05:52:00,26.6,9.6,30.43,NE,48,3.0,5.0,48,0.00,,,0.00,WeatherCatV1.02B3,2013-03-08 10:52:00,
2013-03-08 05:57:00,27.0,7.5,30.43,ENE,67,2.0,5.0,43,0.00,,,0.00,WeatherCatV1.02B3,2013-03-08 10:57:00,
2013-03-08 06:02:00,27.4,8.4,30.42,NE,50,0.0,3.0,44,0.00,,,0.00,WeatherCatV1.02B3,2013-03-08 11:02:00,
2013-03-08 06:07:00,27.7,6.0,30.42,ENE,78,1.0,4.0,39,0.00,,,0.00,WeatherCatV1.02B3,2013-03-08 11:07:00,
2013-03-08 06:12:00,28.0,5.7,30.42,North,5,7.0,10.0,38,0.00,,,0.00,WeatherCatV1.02B3,2013-03-08 11:12:00,
2013-03-08 06:18:00,28.4,6.1,30.42,ENE,59,3.0,3.0,38,0.00,,,0.00,WeatherCatV1.02B3,2013-03-08 11:18:00,
2013-03-08 06:23:00,28.5,5.6,30.43,North,355,2.0,6.0,37,0.00,,,0.00,WeatherCatV1.02B3,2013-03-08 11:23:00,
2013-03-08 06:28:00,28.6,6.2,30.43,NNE,13,2.0,5.0,38,0.00,,,0.00,WeatherCatV1.02B3,2013-03-08 11:28:00,
2013-03-08 06:33:00,28.5,6.7,30.43,North,5,0.0,6.0,39,0.00,,,0.00,WeatherCatV1.02B3,2013-03-08 11:33:00,
2013-03-08 06:38:00,28.5,5.6,30.43,East,83,1.0,2.0,37,0.00,,,0.00,WeatherCatV1.02B3,2013-03-08 11:38:00,
2013-03-08 06:43:00,28.5,7.8,30.43,ENE,72,0.0,2.0,41,0.00,,,0.00,WeatherCatV1.02B3,2013-03-08 11:43:00,
2013-03-08 06:48:00,28.2,8.1,30.44,NE,37,5.0,6.0,42,0.00,,,0.00,WeatherCatV1.02B3,2013-03-08 11:48:00,
2013-03-08 06:53:00,27.9,7.8,30.43,NE,48,3.0,5.0,42,0.00,,,0.00,WeatherCatV1.02B3,2013-03-08 11:53:00,
2013-03-08 06:58:00,27.7,8.7,30.44,ENE,74,2.0,3.0,44,0.00,,,0.00,WeatherCatV1.02B3,2013-03-08 11:58:00,
2013-03-08 07:03:00,27.5,8.5,30.44,East,82,1.0,4.0,44,0.00,,,0.00,WeatherCatV1.02B3,2013-03-08 12:03:00,
2013-03-08 07:08:00,27.5,9.5,30.44,NE,52,0.0,5.0,46,0.00,,,0.00,WeatherCatV1.02B3,2013-03-08 12:08:00,
2013-03-08 07:13:00,27.4,9.4,30.44,NNE,12,5.0,7.0,46,0.00,,,0.00,WeatherCatV1.02B3,2013-03-08 12:13:00,
2013-03-08 07:18:00,27.3,9.3,30.44,ENE,64,1.0,4.0,46,0.00,,,0.00,WeatherCatV1.02B3,2013-03-08 12:18:00,
2013-03-08 07:23:00,27.1,10.0,30.44,NNE,30,0.0,3.0,48,0.00,,,0.00,WeatherCatV1.02B3,2013-03-08 12:23:00,
2013-03-08 07:28:00,27.1,10.0,30.45,NE,38,0.0,6.0,48,0.00,,,0.00,WeatherCatV1.02B3,2013-03-08 12:28:00,
2013-03-08 07:33:00,27.1,9.6,30.45,NE,51,0.0,5.0,47,0.00,,,0.00,WeatherCatV1.02B3,2013-03-08 12:33:00,
2013-03-08 07:38:00,27.2,9.7,30.44,East,97,0.0,7.0,47,0.00,,,0.00,WeatherCatV1.02B3,2013-03-08 12:38:00,
2013-03-08 07:43:00,27.6,8.1,30.45,NE,40,0.0,9.0,43,0.00,,,0.00,WeatherCatV1.02B3,2013-03-08 12:43:00,
2013-03-08 07:48:00,28.2,5.3,30.45,NNE,32,2.0,6.0,37,0.00,,,0.00,WeatherCatV1.02B3,2013-03-08 12:48:00,
2013-03-08 07:53:00,29.2,5.6,30.45,NNE,32,2.0,11.0,36,0.00,,,0.00,WeatherCatV1.02B3,2013-03-08 12:53:00,
2013-03-08 07:58:00,29.8,5.5,30.45,NW,313,5.0,9.0,35,0.00,,,0.00,WeatherCatV1.02B3,2013-03-08 12:58:00,
2013-03-08 08:03:00,30.3,4.7,30.45,North,0,2.0,7.0,33,0.00,,,0.00,WeatherCatV1.02B3,2013-03-08 13:03:00,
2013-03-08 08:08:00,30.5,6.1,30.45,NNW,346,4.0,6.0,35,0.00,,,0.00,WeatherCatV1.02B3,2013-03-08 13:08:00,
2013-03-08 08:13:00,30.6,5.6,30.46,NE,39,4.0,6.0,34,0.00,,,0.00,WeatherCatV1.02B3,2013-03-08 13:13:00,
2013-03-08 08:18:00,30.6,5.0,30.46,North,0,4.0,7.0,33,0.00,,,0.00,WeatherCatV1.02B3,2013-03-08 13:18:00,
2013-03-08 08:23:00,30.6,6.9,30.45,East,79,4.0,9.0,36,0.00,,,0.00,WeatherCatV1.02B3,2013-03-08 13:23:00,
2013-03-08 08:28:00,30.5,9.1,30.45,NE,47,0.0,4.0,40,0.00,,,0.00,WeatherCatV1.02B3,2013-03-08 13:28:00,
2013-03-08 08:33:00,30.5,7.4,30.45,NE,50,6.0,6.0,37,0.00,,,0.00,WeatherCatV1.02B3,2013-03-08 13:33:00,
2013-03-08 08:38:00,30.6,6.9,30.45,ENE,61,1.0,2.0,36,0.00,,,0.00,WeatherCatV1.02B3,2013-03-08 13:38:00,
2013-03-08 08:43:00,30.9,7.1,30.45,NE,40,5.0,9.0,36,0.00,,,0.00,WeatherCatV1.02B3,2013-03-08 13:43:00,
2013-03-08 08:48:00,31.0,9.5,30.45,ENE,62,0.0,3.0,40,0.00,,,0.00,WeatherCatV1.02B3,2013-03-08 13:48:00,
2013-03-08 08:53:00,30.7,10.9,30.45,NE,37,0.0,4.0,43,0.00,,,0.00,WeatherCatV1.02B3,2013-03-08 13:53:00,
2013-03-08 08:58:00,30.3,11.0,30.46,NNE,24,3.0,4.0,44,0.00,,,0.00,WeatherCatV1.02B3,2013-03-08 13:58:00,
2013-03-08 09:03:00,30.0,12.2,30.46,NNE,28,0.0,2.0,47,0.00,,,0.00,WeatherCatV1.02B3,2013-03-08 14:03:00,
2013-03-08 09:08:00,29.7,13.8,30.46,NE,36,0.0,1.0,51,0.00,,,0.00,WeatherCatV1.02B3,2013-03-08 14:08:00,
2013-03-08 09:13:00,29.5,13.2,30.46,ESE,122,0.0,4.0,50,0.00,,,0.00,WeatherCatV1.02B3,2013-03-08 14:13:00,
2013-03-08 09:18:00,29.7,12.9,30.47,East,100,1.0,2.0,49,0.00,,,0.00,WeatherCatV1.02B3,2013-03-08 14:18:00,
2013-03-08 09:23:00,30.0,14.1,30.47,East,99,0.0,0.0,51,0.00,,,0.00,WeatherCatV1.02B3,2013-03-08 14:23:00,
2013-03-08 09:28:00,30.3,15.2,30.47,NNE,25,0.0,2.0,53,0.00,,,0.00,WeatherCatV1.02B3,2013-03-08 14:28:00,
2013-03-08 09:33:00,30.6,15.1,30.47,NNE,19,0.0,4.0,52,0.00,,,0.00,WeatherCatV1.02B3,2013-03-08 14:33:00,
2013-03-08 09:38:00,30.7,16.9,30.47,NNE,19,1.0,2.0,56,0.00,,,0.00,WeatherCatV1.02B3,2013-03-08 14:38:00,
2013-03-08 09:43:00,30.7,16.5,30.47,NNE,19,0.0,3.0,55,0.00,,,0.00,WeatherCatV1.02B3,2013-03-08 14:43:00,
2013-03-08 09:48:00,30.9,15.4,30.47,NNE,22,0.0,1.0,52,0.00,,,0.00,WeatherCatV1.02B3,2013-03-08 14:48:00,
2013-03-08 09:53:00,31.5,14.6,30.47,NW,309,2.0,4.0,49,0.00,,,0.00,WeatherCatV1.02B3,2013-03-08 14:53:00,
2013-03-08 09:58:00,32.1,16.9,30.47,ENE,66,0.0,1.0,53,0.00,,,0.00,WeatherCatV1.02B3,2013-03-08 14:58:00,
2013-03-08 10:03:00,32.7,16.1,30.47,NW,304,0.0,6.0,50,0.00,,,0.00,WeatherCatV1.02B3,2013-03-08 15:03:00,
2013-03-08 10:08:00,33.7,14.6,30.47,NNE,30,1.0,1.0,45,0.00,,,0.00,WeatherCatV1.02B3,2013-03-08 15:08:00,
2013-03-08 10:13:00,34.7,16.6,30.47,North,0,4.0,5.0,47,0.00,,,0.00,WeatherCatV1.02B3,2013-03-08 15:13:00,
2013-03-08 10:18:00,35.6,18.3,30.47,SSW,200,0.0,7.0,49,0.00,,,0.00,WeatherCatV1.02B3,2013-03-08 15:18:00,
2013-03-08 10:23:00,36.4,17.6,30.47,NE,47,1.0,6.0,46,0.00,,,0.00,WeatherCatV1.02B3,2013-03-08 15:23:00,
2013-03-08 10:28:00,36.6,17.3,30.47,ENE,59,2.0,9.0,45,0.00,,,0.00,WeatherCatV1.02B3,2013-03-08 15:28:00,
2013-03-08 10:33:00,37.1,18.3,30.47,NE,49,1.0,8.0,46,0.00,,,0.00,WeatherCatV1.02B3,2013-03-08 15:33:00,
2013-03-08 10:38:00,37.5,16.5,30.47,NNE,33,3.0,5.0,42,0.00,,,0.00,WeatherCatV1.02B3,2013-03-08 15:38:00,
2013-03-08 10:43:00,38.2,18.2,30.47,ENE,74,1.0,5.0,44,0.00,,,0.00,WeatherCatV1.02B3,2013-03-08 15:43:00,
2013-03-08 10:48:00,38.3,16.7,30.47,WNW,292,0.0,6.0,41,0.00,,,0.00,WeatherCatV1.02B3,2013-03-08 15:48:00,
2013-03-08 10:53:00,38.3,17.8,30.47,NW,326,5.0,12.0,43,0.00,,,0.00,WeatherCatV1.02B3,2013-03-08 15:53:00,
2013-03-08 10:58:00,38.2,17.2,30.47,WSW,248,0.0,9.0,42,0.00,,,0.00,WeatherCatV1.02B3,2013-03-08 15:58:00,
2013-03-08 11:03:00,38.0,18.6,30.47,North,5,3.0,6.0,45,0.00,,,0.00,WeatherCatV1.02B3,2013-03-08 16:03:00,
2013-03-08 11:08:00,37.9,18.0,30.47,NNW,348,0.0,7.0,44,0.00,,,0.00,WeatherCatV1.02B3,2013-03-08 16:08:00,
2013-03-08 11:13:00,38.3,18.8,30.47,WNW,303,4.0,7.0,45,0.00,,,0.00,WeatherCatV1.02B3,2013-03-08 16:13:00,
2013-03-08 11:18:00,38.7,18.7,30.47,North,0,5.0,9.0,44,0.00,,,0.00,WeatherCatV1.02B3,2013-03-08 16:18:00,
2013-03-08 11:23:00,39.5,18.9,30.47,NNW,345,6.0,6.0,43,0.00,,,0.00,WeatherCatV1.02B3,2013-03-08 16:23:00,
2013-03-08 11:28:00,39.9,19.2,30.47,ENE,65,1.0,6.0,43,0.00,,,0.00,WeatherCatV1.02B3,2013-03-08 16:28:00,
2013-03-08 11:33:00,39.9,20.3,30.47,NW,312,6.0,6.0,45,0.00,,,0.00,WeatherCatV1.02B3,2013-03-08 16:33:00,
2013-03-08 11:38:00,39.8,20.2,30.47,NNE,17,2.0,6.0,45,0.00,,,0.00,WeatherCatV1.02B3,2013-03-08 16:38:00,
2013-03-08 11:43:00,40.0,21.4,30.47,NE,41,2.0,6.0,47,0.00,,,0.00,WeatherCatV1.02B3,2013-03-08 16:43:00,
2013-03-08 11:48:00,40.5,20.9,30.47,NNW,337,2.0,4.0,45,0.00,,,0.00,WeatherCatV1.02B3,2013-03-08 16:48:00,
2013-03-08 11:53:00,41.0,21.3,30.47,ENE,72,0.0,4.0,45,0.00,,,0.00,WeatherCatV1.02B3,2013-03-08 16:53:00,
2013-03-08 11:58:00,41.1,21.9,30.46,NW,315,6.0,7.0,46,0.00,,,0.00,WeatherCatV1.02B3,2013-03-08 16:58:00,
2013-03-08 12:03:00,41.2,22.5,30.47,NE,47,2.0,5.0,47,0.00,,,0.00,WeatherCatV1.02B3,2013-03-08 17:03:00,
2013-03-08 12:08:00,41.1,21.9,30.46,North,5,2.0,4.0,46,0.00,,,0.00,WeatherCatV1.02B3,2013-03-08 17:08:00,
2013-03-08 12:13:00,40.7,21.0,30.46,North,0,3.0,4.0,45,0.00,,,0.00,WeatherCatV1.02B3,2013-03-08 17:13:00,
2013-03-08 12:18:00,40.7,23.0,30.46,North,355,0.0,1.0,49,0.00,,,0.00,WeatherCatV1.02B3,2013-03-08 17:18:00,
2013-03-08 12:23:00,41.0,22.8,30.46,NNE,21,0.0,4.0,48,0.00,,,0.00,WeatherCatV1.02B3,2013-03-08 17:23:00,
2013-03-08 12:28:00,41.3,22.1,30.46,North,9,1.0,3.0,46,0.00,,,0.00,WeatherCatV1.02B3,2013-03-08 17:28:00,
2013-03-08 12:33:00,41.9,23.2,30.45,NE,56,1.0,2.0,47,0.00,,,0.00,WeatherCatV1.02B3,2013-03-08 17:33:00,
2013-03-08 12:38:00,42.1,21.8,30.45,SSE,164,0.0,4.0,44,0.00,,,0.00,WeatherCatV1.02B3,2013-03-08 17:38:00,
2013-03-08 12:43:00,42.0,21.7,30.45,WNW,296,0.0,0.0,44,0.00,,,0.00,WeatherCatV1.02B3,2013-03-08 17:43:00,
2013-03-08 12:48:00,41.6,20.8,30.45,South,180,0.0,5.0,43,0.00,,,0.00,WeatherCatV1.02B3,2013-03-08 17:48:00,
2013-03-08 12:53:00,41.1,21.4,30.45,SSW,210,0.0,3.0,45,0.00,,,0.00,WeatherCatV1.02B3,2013-03-08 17:53:00,
2013-03-08 12:58:00,41.2,22.0,30.45,NNW,342,0.0,2.0,46,0.00,,,0.00,WeatherCatV1.02B3,2013-03-08 17:58:00,
2013-03-08 13:03:00,41.5,23.3,30.45,NNW,346,2.0,4.0,48,0.00,,,0.00,WeatherCatV1.02B3,2013-03-08 18:03:00,
2013-03-08 13:08:00,42.0,22.7,30.45,WNW,292,1.0,5.0,46,0.00,,,0.00,WeatherCatV1.02B3,2013-03-08 18:08:00,
2013-03-08 13:13:00,42.2,21.9,30.45,WNW,286,0.0,5.0,44,0.00,,,0.00,WeatherCatV1.02B3,2013-03-08 18:13:00,
2013-03-08 13:18:00,42.3,22.5,30.44,SSE,155,3.0,3.0,45,0.00,,,0.00,WeatherCatV1.02B3,2013-03-08 18:18:00,
2013-03-08 13:23:00,42.5,21.6,30.44,WNW,282,1.0,3.0,43,0.00,,,0.00,WeatherCatV1.02B3,2013-03-08 18:23:00,
2013-03-08 13:28:00,42.9,22.0,30.44,WNW,283,3.0,6.0,43,0.00,,,0.00,WeatherCatV1.02B3,2013-03-08 18:28:00,
2013-03-08 13:33:00,43.4,22.4,30.44,WSW,254,1.0,6.0,43,0.00,,,0.00,WeatherCatV1.02B3,2013-03-08 18:33:00,
2013-03-08 13:38:00,43.7,23.2,30.44,SSW,203,4.0,4.0,44,0.00,,,0.00,WeatherCatV1.02B3,2013-03-08 18:38:00,
2013-03-08 13:43:00,43.9,24.5,30.44,NNE,33,0.0,2.0,46,0.00,,,0.00,WeatherCatV1.02B3,2013-03-08 18:43:00,
2013-03-08 13:48:00,43.8,22.2,30.43,East,85,0.0,2.0,42,0.00,,,0.00,WeatherCatV1.02B3,2013-03-08 18:48:00,
2013-03-08 13:53:00,44.0,24.6,30.43,ESE,117,0.0,1.0,46,0.00,,,0.00,WeatherCatV1.02B3,2013-03-08 18:53:00,
2013-03-08 13:58:00,44.6,25.1,30.43,North,0,4.0,5.0,46,0.00,,,0.00,WeatherCatV1.02B3,2013-03-08 18:58:00,
2013-03-08 14:03:00,44.8,24.2,30.43,WSW,257,0.0,3.0,44,0.00,,,0.00,WeatherCatV1.02B3,2013-03-08 19:03:00,
2013-03-08 14:08:00,44.9,23.2,30.43,ESE,117,0.0,3.0,42,0.00,,,0.00,WeatherCatV1.02B3,2013-03-08 19:08:00,
2013-03-08 14:13:00,44.8,21.4,30.43,NW,304,3.0,10.0,39,0.00,,,0.00,WeatherCatV1.02B3,2013-03-08 19:13:00,
2013-03-08 14:18:00,45.0,22.1,30.43,NW,319,0.0,2.0,40,0.00,,,0.00,WeatherCatV1.02B3,2013-03-08 19:18:00,
2013-03-08 14:23:00,45.0,22.1,30.43,WNW,287,0.0,2.0,40,0.00,,,0.00,WeatherCatV1.02B3,2013-03-08 19:23:00,
2013-03-08 14:28:00,45.3,23.6,30.43,NW,311,5.0,7.0,42,0.00,,,0.00,WeatherCatV1.02B3,2013-03-08 19:28:00,
2013-03-08 14:33:00,45.4,23.7,30.42,North,11,1.0,5.0,42,0.00,,,0.00,WeatherCatV1.02B3,2013-03-08 19:33:00,
2013-03-08 14:38:00,45.2,22.9,30.42,WNW,296,3.0,5.0,41,0.00,,,0.00,WeatherCatV1.02B3,2013-03-08 19:38:00,
2013-03-08 14:43:00,45.6,24.4,30.42,WSW,246,5.0,6.0,43,0.00,,,0.00,WeatherCatV1.02B3,2013-03-08 19:43:00,
2013-03-08 14:48:00,45.7,23.9,30.42,North,349,1.0,3.0,42,0.00,,,0.00,WeatherCatV1.02B3,2013-03-08 19:48:00,
2013-03-08 14:53:00,45.6,23.3,30.42,West,279,1.0,5.0,41,0.00,,,0.00,WeatherCatV1.02B3,2013-03-08 19:53:00,
2013-03-08 14:58:00,45.8,23.5,30.43,South,173,0.0,9.0,41,0.00,,,0.00,WeatherCatV1.02B3,2013-03-08 19:58:00,
2013-03-08 15:03:00,45.7,24.5,30.42,West,280,1.0,5.0,43,0.00,,,0.00,WeatherCatV1.02B3,2013-03-08 20:03:00,
2013-03-08 15:08:00,45.8,25.1,30.43,NNW,341,0.0,5.0,44,0.00,,,0.00,WeatherCatV1.02B3,2013-03-08 20:08:00,
2013-03-08 15:13:00,45.7,25.0,30.43,WNW,289,1.0,9.0,44,0.00,,,0.00,WeatherCatV1.02B3,2013-03-08 20:13:00,
2013-03-08 15:18:00,45.9,25.8,30.42,North,5,6.0,6.0,45,0.00,,,0.00,WeatherCatV1.02B3,2013-03-08 20:18:00,
2013-03-08 15:23:00,45.5,26.5,30.42,NE,36,2.0,11.0,47,0.00,,,0.00,WeatherCatV1.02B3,2013-03-08 20:23:00,
2013-03-08 15:28:00,45.4,24.8,30.43,NW,313,6.0,6.0,44,0.00,,,0.00,WeatherCatV1.02B3,2013-03-08 20:28:00,
2013-03-08 15:33:00,45.0,26.5,30.43,West,279,4.0,5.0,48,0.00,,,0.00,WeatherCatV1.02B3,2013-03-08 20:33:00,
2013-03-08 15:38:00,44.7,25.2,30.44,West,259,3.0,10.0,46,0.00,,,0.00,WeatherCatV1.02B3,2013-03-08 20:38:00,
2013-03-08 15:43:00,44.0,25.6,30.43,SE,130,0.0,4.0,48,0.00,,,0.00,WeatherCatV1.02B3,2013-03-08 20:43:00,
2013-03-08 15:48:00,43.6,25.2,30.43,WNW,284,5.0,7.0,48,0.00,,,0.00,WeatherCatV1.02B3,2013-03-08 20:48:00,
2013-03-08 15:53:00,43.6,25.2,30.42,NNE,30,0.0,3.0,48,0.00,,,0.00,WeatherCatV1.02B3,2013-03-08 20:53:00,
2013-03-08 15:58:00,43.4,25.5,30.42,NE,36,0.0,2.0,49,0.00,,,0.00,WeatherCatV1.02B3,2013-03-08 20:58:00,
2013-03-08 16:03:00,43.1,25.3,30.42,West,274,4.0,6.0,49,0.00,,,0.00,WeatherCatV1.02B3,2013-03-08 21:03:00,
2013-03-08 16:09:00,42.8,25.0,30.42,NW,315,6.0,7.0,49,0.00,,,0.00,WeatherCatV1.02B3,2013-03-08 21:09:00,
2013-03-08 16:14:00,42.6,24.8,30.42,North,350,0.0,1.0,49,0.00,,,0.00,WeatherCatV1.02B3,2013-03-08 21:14:00,
2013-03-08 16:19:00,42.5,25.2,30.41,West,280,0.0,4.0,50,0.00,,,0.00,WeatherCatV1.02B3,2013-03-08 21:19:00,
2013-03-08 16:24:00,42.7,25.4,30.41,NNW,342,3.0,7.0,50,0.00,,,0.00,WeatherCatV1.02B3,2013-03-08 21:24:00,
2013-03-08 16:29:00,42.7,25.4,30.40,NNE,22,0.0,4.0,50,0.00,,,0.00,WeatherCatV1.02B3,2013-03-08 21:29:00,
2013-03-08 16:34:00,42.7,24.9,30.40,NW,319,0.0,5.0,49,0.00,,,0.00,WeatherCatV1.02B3,2013-03-08 21:34:00,
2013-03-08 16:39:00,42.4,24.6,30.40,NNE,12,5.0,7.0,49,0.00,,,0.00,WeatherCatV1.02B3,2013-03-08 21:39:00,
2013-03-08 16:44:00,42.1,24.3,30.41,WNW,291,0.0,6.0,49,0.00,,,0.00,WeatherCatV1.02B3,2013-03-08 21:44:00,
2013-03-08 16:45:00,42.0,24.7,30.40,NNE,33,1.0,6.0,50,0.00,,,0.00,WeatherCatV1.02B3,2013-03-08 21:45:00,
2013-03-08 16:50:00,41.8,24.5,30.40,NE,46,1.0,5.0,50,0.00,,,0.00,WeatherCatV1.02B3,2013-03-08 21:50:00,
2013-03-08 16:55:00,41.6,24.8,30.41,NW,319,1.0,5.0,51,0.00,,,0.00,WeatherCatV1.02B3,2013-03-08 21:55:00,
2013-03-08 17:00:00,41.4,24.6,30.41,NW,326,5.0,12.0,51,0.00,,,0.00,WeatherCatV1.02B3,2013-03-08 22:00:00,
2013-03-08 17:05:00,41.1,24.8,30.41,NNW,327,0.0,9.0,52,0.00,,,0.00,WeatherCatV1.02B3,2013-03-08 22:05:00,
2013-03-08 17:10:00,40.9,24.6,30.41,NW,308,4.0,4.0,52,0.00,,,0.00,WeatherCatV1.02B3,2013-03-08 22:10:00,
2013-03-08 17:15:00,40.6,25.3,30.41,WNW,290,2.0,9.0,54,0.00,,,0.00,WeatherCatV1.02B3,2013-03-08 22:15:00,
2013-03-08 17:20:00,40.4,23.7,30.41,NNE,14,3.0,4.0,51,0.00,,,0.00,WeatherCatV1.02B3,2013-03-08 22:20:00,
2013-03-08 17:25:00,40.2,24.0,30.41,NNE,19,0.0,7.0,52,0.00,,,0.00,WeatherCatV1.02B3,2013-03-08 22:25:00,
2013-03-08 17:30:00,40.0,24.3,30.41,WNW,301,2.0,2.0,53,0.00,,,0.00,WeatherCatV1.02B3,2013-03-08 22:30:00,
2013-03-08 17:35:00,39.7,24.4,30.42,NNW,344,0.0,3.0,54,0.00,,,0.00,WeatherCatV1.02B3,2013-03-08 22:35:00,
2013-03-08 17:40:00,39.4,24.2,30.42,NW,308,0.0,4.0,54,0.00,,,0.00,WeatherCatV1.02B3,2013-03-08 22:40:00,
2013-03-08 17:45:00,39.0,24.2,30.42,SSW,201,4.0,6.0,55,0.00,,,0.00,WeatherCatV1.02B3,2013-03-08 22:45:00,
2013-03-08 17:50:00,38.6,24.7,30.42,NW,322,1.0,4.0,57,0.00,,,0.00,WeatherCatV1.02B3,2013-03-08 22:50:00,
2013-03-08 17:55:00,38.1,24.2,30.42,WNW,285,0.0,2.0,57,0.00,,,0.00,WeatherCatV1.02B3,2013-03-08 22:55:00,
2013-03-08 18:00:00,37.7,23.9,30.42,NNE,15,2.0,3.0,57,0.00,,,0.00,WeatherCatV1.02B3,2013-03-08 23:00:00,
2013-03-08 18:05:00,37.4,24.4,30.42,ENE,61,0.0,2.0,59,0.00,,,0.00,WeatherCatV1.02B3,2013-03-08 23:05:00,
2013-03-08 18:10:00,37.0,24.0,30.42,NE,44,2.0,3.0,59,0.00,,,0.00,WeatherCatV1.02B3,2013-03-08 23:10:00,
2013-03-08 18:15:00,36.8,23.8,30.42,East,87,1.0,4.0,59,0.00,,,0.00,WeatherCatV1.02B3,2013-03-08 23:15:00,
2013-03-08 18:20:00,36.7,24.1,30.43,South,182,0.0,5.0,60,0.00,,,0.00,WeatherCatV1.02B3,2013-03-08 23:20:00,
2013-03-08 18:25:00,36.5,24.0,30.43,NNE,19,0.0,2.0,60,0.00,,,0.00,WeatherCatV1.02B3,2013-03-08 23:25:00,
2013-03-08 18:30:00,36.1,24.0,30.42,NNE,33,3.0,5.0,61,0.00,,,0.00,WeatherCatV1.02B3,2013-03-08 23:30:00,
2013-03-08 18:35:00,35.9,23.8,30.43,NE,46,5.0,9.0,61,0.00,,,0.00,WeatherCatV1.02B3,2013-03-08 23:35:00,
2013-03-08 18:40:00,35.7,24.4,30.43,North,355,0.0,3.0,63,0.00,,,0.00,WeatherCatV1.02B3,2013-03-08 23:40:00,
2013-03-08 18:45:00,35.4,24.1,30.43,WNW,292,0.0,9.0,63,0.00,,,0.00,WeatherCatV1.02B3,2013-03-08 23:45:00,
2013-03-08 18:50:00,35.2,23.9,30.43,NNE,21,0.0,6.0,63,0.00,,,0.00,WeatherCatV1.02B3,2013-03-08 23:50:00,
2013-03-08 18:55:00,35.0,24.1,30.43,North,355,1.0,6.0,64,0.00,,,0.00,WeatherCatV1.02B3,2013-03-08 23:55:00,
2013-03-08 19:00:00,34.8,23.9,30.43,NE,36,1.0,5.0,64,0.00,,,0.00,WeatherCatV1.02B3,2013-03-09 00:00:00,
2013-03-08 19:05:00,34.4,23.5,30.43,South,190,1.0,3.0,64,0.00,,,0.00,WeatherCatV1.02B3,2013-03-09 00:05:00,
2013-03-08 19:10:00,34.4,23.5,30.43,South,189,0.0,6.0,64,0.00,,,0.00,WeatherCatV1.02B3,2013-03-09 00:10:00,
2013-03-08 19:15:00,34.4,23.5,30.43,SSE,151,1.0,3.0,64,0.00,,,0.00,WeatherCatV1.02B3,2013-03-09 00:15:00,
2013-03-08 19:20:00,34.4,23.1,30.43,South,190,0.0,7.0,63,0.00,,,0.00,WeatherCatV1.02B3,2013-03-09 00:20:00,
2013-03-08 19:25:00,34.4,23.5,30.43,NE,51,4.0,4.0,64,0.00,,,0.00,WeatherCatV1.02B3,2013-03-09 00:25:00,
2013-03-08 19:30:00,34.2,23.7,30.43,SSW,197,0.0,1.0,65,0.00,,,0.00,WeatherCatV1.02B3,2013-03-09 00:30:00,
2013-03-08 19:35:00,33.8,22.9,30.44,SSE,163,0.0,2.0,64,0.00,,,0.00,WeatherCatV1.02B3,2013-03-09 00:35:00,
2013-03-08 19:40:00,33.4,22.6,30.44,SSE,163,0.0,0.0,64,0.00,,,0.00,WeatherCatV1.02B3,2013-03-09 00:40:00,
2013-03-08 19:45:00,33.1,21.9,30.44,SSE,163,0.0,0.0,63,0.00,,,0.00,WeatherCatV1.02B3,2013-03-09 00:45:00,
2013-03-08 19:50:00,33.1,22.3,30.44,SSE,163,0.0,0.0,64,0.00,,,0.00,WeatherCatV1.02B3,2013-03-09 00:50:00,
2013-03-08 19:55:00,33.0,21.8,30.44,SSE,163,1.0,2.0,63,0.00,,,0.00,WeatherCatV1.02B3,2013-03-09 00:55:00,
2013-03-08 20:00:00,32.9,20.9,30.44,SSE,163,0.0,1.0,61,0.00,,,0.00,WeatherCatV1.02B3,2013-03-09 01:00:00,
2013-03-08 20:05:00,32.9,20.2,30.44,SSE,163,0.0,0.0,59,0.00,,,0.00,WeatherCatV1.02B3,2013-03-09 01:05:00,
2013-03-08 20:10:00,33.2,21.6,30.44,SSE,151,0.0,0.0,62,0.00,,,0.00,WeatherCatV1.02B3,2013-03-09 01:10:00,
2013-03-08 20:15:00,33.4,20.6,30.44,SSE,148,0.0,1.0,59,0.00,,,0.00,WeatherCatV1.02B3,2013-03-09 01:15:00,
2013-03-08 20:20:00,33.4,21.0,30.44,SSE,149,0.0,0.0,60,0.00,,,0.00,WeatherCatV1.02B3,2013-03-09 01:20:00,
2013-03-08 20:25:00,33.4,21.4,30.45,SSE,148,0.0,0.0,61,0.00,,,0.00,WeatherCatV1.02B3,2013-03-09 01:25:00,
2013-03-08 20:30:00,33.0,21.0,30.45,SSE,148,0.0,1.0,61,0.00,,,0.00,WeatherCatV1.02B3,2013-03-09 01:30:00,
2013-03-08 20:35:00,32.9,20.2,30.46,NNE,24,0.0,0.0,59,0.00,,,0.00,WeatherCatV1.02B3,2013-03-09 01:35:00,
2013-03-08 20:40:00,33.0,21.8,30.46,NE,38,0.0,3.0,63,0.00,,,0.00,WeatherCatV1.02B3,2013-03-09 01:40:00,
2013-03-08 20:45:00,32.9,21.7,30.46,NE,52,1.0,3.0,63,0.00,,,0.00,WeatherCatV1.02B3,2013-03-09 01:45:00,
2013-03-08 20:50:00,32.9,21.7,30.47,ENE,78,0.0,2.0,63,0.00,,,0.00,WeatherCatV1.02B3,2013-03-09 01:50:00,
2013-03-08 20:55:00,33.0,21.4,30.47,SSW,195,0.0,6.0,62,0.00,,,0.00,WeatherCatV1.02B3,2013-03-09 01:55:00,
2013-03-08 21:00:00,33.2,21.2,30.47,East,95,0.0,2.0,61,0.00,,,0.00,WeatherCatV1.02B3,2013-03-09 02:00:00,
2013-03-08 21:05:00,33.4,21.4,30.47,SSW,205,0.0,1.0,61,0.00,,,0.00,WeatherCatV1.02B3,2013-03-09 02:05:00,
2013-03-08 21:10:00,33.4,21.0,30.47,ENE,65,1.0,6.0,60,0.00,,,0.00,WeatherCatV1.02B3,2013-03-09 02:10:00,
2013-03-08 21:15:00,33.4,20.6,30.47,SE,142,1.0,5.0,59,0.00,,,0.00,WeatherCatV1.02B3,2013-03-09 02:15:00,
2013-03-08 21:20:00,33.5,20.3,30.47,West,267,1.0,1.0,58,0.00,,,0.00,WeatherCatV1.02B3,2013-03-09 02:20:00,
2013-03-08 21:25:00,33.6,20.4,30.47,ENE,77,0.0,3.0,58,0.00,,,0.00,WeatherCatV1.02B3,2013-03-09 02:25:00,
2013-03-08 21:30:00,33.7,20.1,30.47,SE,129,0.0,5.0,57,0.00,,,0.00,WeatherCatV1.02B3,2013-03-09 02:30:00,
2013-03-08 21:35:00,33.8,20.2,30.46,East,91,0.0,2.0,57,0.00,,,0.00,WeatherCatV1.02B3,2013-03-09 02:35:00,
2013-03-08 21:40:00,33.9,19.9,30.46,East,88,0.0,5.0,56,0.00,,,0.00,WeatherCatV1.02B3,2013-03-09 02:40:00,
2013-03-08 21:45:00,33.9,21.1,30.46,NW,304,1.0,9.0,59,0.00,,,0.00,WeatherCatV1.02B3,2013-03-09 02:45:00,
2013-03-08 21:50:00,34.0,20.0,30.46,SSE,157,0.0,1.0,56,0.00,,,0.00,WeatherCatV1.02B3,2013-03-09 02:50:00,
2013-03-08 21:55:00,34.2,18.4,30.46,SSE,150,1.0,3.0,52,0.00,,,0.00,WeatherCatV1.02B3,2013-03-09 02:55:00,
2013-03-08 22:00:00,34.4,20.3,30.46,ESE,119,0.0,0.0,56,0.00,,,0.00,WeatherCatV1.02B3,2013-03-09 03:00:00,
2013-03-08 22:05:00,34.4,19.1,30.46,ESE,119,0.0,0.0,53,0.00,,,0.00,WeatherCatV1.02B3,2013-03-09 03:05:00,
2013-03-08 22:10:00,34.4,17.2,30.46,ESE,103,1.0,3.0,49,0.00,,,0.00,WeatherCatV1.02B3,2013-03-09 03:10:00,
2013-03-08 22:15:00,34.5,18.3,30.46,ESE,103,0.0,1.0,51,0.00,,,0.00,WeatherCatV1.02B3,2013-03-09 03:15:00,
2013-03-08 22:20:00,34.4,17.7,30.45,ESE,103,0.0,0.0,50,0.00,,,0.00,WeatherCatV1.02B3,2013-03-09 03:20:00,
2013-03-08 22:25:00,34.8,16.6,30.45,ESE,103,0.0,0.0,47,0.00,,,0.00,WeatherCatV1.02B3,2013-03-09 03:25:00,
2013-03-08 22:30:00,35.0,14.8,30.45,ESE,103,0.0,0.0,43,0.00,,,0.00,WeatherCatV1.02B3,2013-03-09 03:30:00,
2013-03-08 22:35:00,35.1,13.2,30.45,ESE,102,0.0,0.0,40,0.00,,,0.00,WeatherCatV1.02B3,2013-03-09 03:35:00,
2013-03-08 22:40:00,35.5,13.0,30.45,ESE,102,0.0,1.0,39,0.00,,,0.00,WeatherCatV1.02B3,2013-03-09 03:40:00,
2013-03-08 22:45:00,36.0,14.6,30.45,ESE,103,0.0,0.0,41,0.00,,,0.00,WeatherCatV1.02B3,2013-03-09 03:45:00,
2013-03-08 22:50:00,36.3,13.7,30.45,ESE,103,1.0,1.0,39,0.00,,,0.00,WeatherCatV1.02B3,2013-03-09 03:50:00,
2013-03-08 22:55:00,36.1,12.4,30.45,SSE,148,2.0,3.0,37,0.00,,,0.00,WeatherCatV1.02B3,2013-03-09 03:55:00,
2013-03-08 23:00:00,35.7,11.4,30.45,SSE,148,1.0,1.0,36,0.00,,,0.00,WeatherCatV1.02B3,2013-03-09 04:00:00,
2013-03-08 23:05:00,35.9,8.9,30.45,SSE,148,1.0,2.0,32,0.00,,,0.00,WeatherCatV1.02B3,2013-03-09 04:05:00,
2013-03-08 23:10:00,36.4,10.7,30.45,SSE,148,2.0,2.0,34,0.00,,,0.00,WeatherCatV1.02B3,2013-03-09 04:10:00,
2013-03-08 23:15:00,36.8,11.1,30.45,SSE,148,2.0,2.0,34,0.00,,,0.00,WeatherCatV1.02B3,2013-03-09 04:15:00,
2013-03-08 23:20:00,37.2,10.1,30.45,SSE,148,0.0,2.0,32,0.00,,,0.00,WeatherCatV1.02B3,2013-03-09 04:20:00,
2013-03-08 23:25:00,37.3,13.4,30.45,SE,146,0.0,0.0,37,0.00,,,0.00,WeatherCatV1.02B3,2013-03-09 04:25:00,
2013-03-08 23:30:00,36.5,12.7,30.46,SSE,147,0.0,0.0,37,0.00,,,0.00,WeatherCatV1.02B3,2013-03-09 04:30:00,
2013-03-08 23:36:00,35.9,12.2,30.46,SSE,147,0.0,0.0,37,0.00,,,0.00,WeatherCatV1.02B3,2013-03-09 04:36:00,
2013-03-08 23:41:00,35.7,12.6,30.46,SSE,147,0.0,0.0,38,0.00,,,0.00,WeatherCatV1.02B3,2013-03-09 04:41:00,
2013-03-08 23:46:00,35.2,14.4,30.46,SE,146,0.0,0.0,42,0.00,,,0.00,WeatherCatV1.02B3,2013-03-09 04:46:00,
2013-03-08 23:51:00,34.6,12.2,30.46,SSE,147,1.0,1.0,39,0.00,,,0.00,WeatherCatV1.02B3,2013-03-09 04:51:00,
2013-03-08 23:56:00,34.6,12.2,30.46,SE,146,0.0,0.0,39,0.00,,,0.00,WeatherCatV1.02B3,2013-03-09 04:56:00,